Location: Villingen
(48.0639°N, 8.4609°E)
Time: 22:19:02
(UTC+01:00)

ISS - Pass Details

Date: 12 November 2017
Orbit: 402 x 407 km, 51.6° (Epoch: 22 November)

Event Time Altitude Azimuth Distance (km) Brightness Sun altitude
Exits shadow 04:19:51 11° 71° (ENE) 1,429 -0.2 -31.4°
Drops below altitude 10° 04:19:56 10° 72° (ENE) 1,458 -0.2 -31.4°
Sets 04:22:04 0° 79° (E) 2,317 1.2 -31.1°
